Regional Weather Roundup
Issued by NWS

Home | Current Version | Previous Version | Text Only | Print | Product List | Glossary On
Versions: 1 2 3 4 5 6 7 8 9 10 11 12 13 14 15 16 17 18 19 20 21 22 23 24 25 26 27 28 29 30 31 32 33 34 35 36 37 38 39 40 41 42 43 44 45 46 47 48 49 50
000
ASCA44 KEWX 240120
RWRMX

LATIN AMERICA AND CARIBBEAN REGIONAL WEATHER ROUNDUP
NATIONAL WEATHER SERVICE AUSTIN/SAN ANTONIO TX
700 PM CST MON JAN 23 2017

NOTE: "FAIR" INDICATED FEW OR NO CLOUDS BELOW 12,000 FEET WITH NO
SIGNIFICANT WEATHER AND/OR OBSTRUCTIONS TO VISIBILITY.

BAJA CALIFORNIA

CITY           SKY/WX    TMP DP  RH WIND       PRES   REMARKS
LORETO         PTCLDY    70  63  78 CALM      29.87R
LA PAZ         CLEAR     72  57  60 N7        29.87R
MEXICALI       CLOUDY    54  45  71 NW16      29.84R
S.J. DEL CABO  CLEAR     70  57  64 SE5       29.86R
TIJUANA        MOCLDY    50  43  76 W6        29.92S WCI  48

NORTHWESTERN MEXICO

CITY           SKY/WX    TMP DP  RH WIND       PRES   REMARKS
CULIACAN       CLEAR     79  59  50 S6        29.76R
DURANGO        CLEAR     72  12  10 SE2       30.10S
GUAYMAS        CLEAR     70  54  56 CALM      29.81F
HERMOSILLO     PTCLDY    75  45  33 W7        29.87F
CD. JUAREZ     CLEAR     61  32  33 SW7       29.75F
LOS MOCHIS     CLEAR     72  41  33 NW15      29.84R
OBREGON        PTCLDY    73  45  35 NW2       29.82F

NORTHEASTERN MEXICO

CITY           SKY/WX    TMP DP  RH WIND       PRES   REMARKS
CHIHUAHUA      CLEAR     75  27  16 SW18      29.88R
MATAMOROS      CLEAR     64  37  36 SE5       29.92R
MONCLOVA         N/A    N/A N/A N/A MISG        N/A
MONTERREY      CLEAR     70  32  24 SE3       29.88F
NUEVO LAREDO   CLEAR     73  30  20 SE9       29.84S
PIEDRAS NEGRAS CLEAR     75  48  38 SE7       29.80
REYNOSA        CLEAR     68  36  30 SE9       29.89S
SALTILLO       CLEAR     70  43  37 CALM      30.09S
TORREON        CLEAR     75  28  17 E6        29.96F
CD. VICTORIA   CLEAR     75  52  43 S8        29.92S

WESTERN MEXICO

CITY           SKY/WX    TMP DP  RH WIND       PRES   REMARKS
AGUASCALIENTES CLEAR     70  10  10 NW6       30.15R
COLIMA         MOCLDY    70  66  88 SW9       29.98R
DEL BAJIO      CLEAR     68  19  15 CALM      30.19R
GUADALAJARA    CLEAR     73  19  13 S3        30.07R
MANZANILLO     PTCLDY    77  72  83 SE12      29.84R
MAZATLAN       CLEAR     70  61  73 W5        29.83R
P. VALLARTA    CLOUDY    75  61  60 SW3       29.86R
URUAPAN        CLEAR     70  46  43 CALM      30.13R
ZACATECAS      CLEAR     63  16  16 E5        30.20R

CENTRAL MEXICO

CITY           SKY/WX    TMP DP  RH WIND       PRES   REMARKS
CUERNAVACA     CLEAR     77  30  18 N6        30.02R
MEXICO CITY    CLEAR     72  25  17 S14       30.22R
MORELIA        CLEAR     66  32  28 CALM      30.14R
POZA RICA      CLEAR     72  64  78 E7        30.03R
PUEBLA         CLEAR     63  25  23 SW8       30.24R
QUERETARO      CLEAR     70  23  17 NE12      30.20R
S. LUIS POTOSI CLEAR     66  21  18 E6        30.15R
TAMPICO        CLEAR     70  52  52 SE12      29.97F
TOLUCA         CLEAR     61  21  21 S8        30.31R

SOUTHERN MEXICO

CITY           SKY/WX    TMP DP  RH WIND       PRES   REMARKS
ACAPULCO       CLEAR     79  72  78 CALM      29.87R
B. DE HUATULCO CLEAR     72  68  88 CALM      29.95R
OAXACA         CLEAR     72  28  20 SE12      30.14R
P. ESCONDIDO   CLEAR     79  72  78 SW12      29.99R
VERACRUZ       CLEAR     73  63  68 SE2       30.03R
ZIHUATANEJO    MOCLDY    82  73  74 SW3       29.88R

YUCATAN PENINSULA

CITY           SKY/WX    TMP DP  RH WIND       PRES   REMARKS
CAMPECHE       PTCLDY    75  63  64 N12G23    29.96S
CANCUN         CLEAR     70  57  64 NW8       29.96R
CHETUMAL       CLEAR     72  61  68 CALM      29.92R
CD. DEL CARMEN CLEAR     75  59  57 NW5       30.01S
COZUMEL        CLEAR     75  59  57 N14       29.93R
MERIDA         CLEAR     70  55  60 W7        29.98R
MINATITLAN     CLEAR     75  68  78 N12       30.02S
TAPACHULA      MOCLDY    81  75  83 CALM      29.87R
TUX. GUTIERREZ CLEAR     72  50  46 W23       29.97R
VILLAHERMOSA   CLEAR     72  59  64 N5        30.04R

CENTRAL AMERICA

CITY           SKY/WX    TMP DP  RH WIND       PRES   REMARKS
BELIZE CITY      N/A     75  64  69 SW2       29.94R
MANAGUA        PTCLDY    82  72  69 NE5       29.83S

CARIBBEAN

CITY           SKY/WX    TMP DP  RH WIND       PRES   REMARKS
ARUBA          PTCLDY    79  73  83 E9        29.89S
CURACAO        PTCLDY    79  73  83 E10       29.92S
KINGSTON       PTCLDY    81  70  69 SW8       29.94R
NASSAU         PTCLDY    73  61  64 W24       29.98R
SAN JUAN       CLEAR     77  66  69 S6        29.93R
SANTO DOMINGO  PTCLDY    77  68  73 SW16      29.89R
ST. CROIX      CLEAR     75  66  73 SE6       29.97
ST. KITTS      PTCLDY    72  68  88 CALM      29.97S
ST. MAARTEN    PTCLDY    79  70  73 SE8       29.97S
ST. THOMAS     CLEAR     79  66  65 S13       29.94

$$




USA.gov is the U.S. government's official web portal to all federal, state and local government web resources and services.